Wind_Speed
26 24 23 22 23 23 24 25 26 26 27 28 28 27 29 31 31 30 29 29 29 29 29 29 29 28 28 28 28 27 27 27 26 26 26 26 25 25 25 26 26 26 26 26
29 27 26 26 24 26 26 25 27 28 29 30 31 30 31 33 34 33 32 31 31 30 30 30 31 31 30 30 30 30 29 29 29 28 28 28 28 27 27 28 28 28 28 28
29 27 28 29 26 25 26 26 26 28 30 31 32 30 31 33 35 36 33 32 32 32 31 31 32 33 32 32 32 32 32 32 31 30 30 29 29 30 30 30 29 30 30 30
28 27 28 27 26 26 27 26 27 29 31 32 33 33 33 35 36 35 35 34 33 33 33 33 34 34 34 34 35 34 34 34 34 33 32 32 32 31 31 32 31 31 31 31
28 27 27 26 27 27 28 29 30 31 31 32 33 33 34 36 36 35 35 34 34 34 35 35 36 36 37 37 36 36 36 36 35 34 34 34 33 33 34 33 33 33 33 33
29 27 27 27 29 28 28 30 31 32 32 32 32 33 34 36 36 35 35 35 35 35 35 36 36 37 38 38 38 37 37 36 35 34 35 35 34 35 35 35 35 35 35 36
29 29 27 29 29 29 29 31 32 33 33 34 34 34 36 37 36 36 35 35 35 35 35 36 37 38 38 38 38 38 37 36 36 36 36 36 36 36 36 37 37 37 37 37
28 28 28 31 32 32 32 33 34 34 33 34 34 34 35 36 36 36 36 35 36 36 36 37 37 38 38 38 38 38 38 38 38 38 38 38 38 38 38 38 38 38 38 38
28 29 31 32 34 34 34 34 35 35 35 34 34 34 35 36 36 36 37 37 37 37 38 38 38 39 39 38 38 38 39 39 40 40 40 40 40 39 39 39 40 40 39 39
31 32 32 34 35 34 34 35 36 36 36 35 35 35 36 36 36 37 38 37 38 38 38 38 39 39 40 40 40 39 40 41 41 41 41 41 41 41 41 41 41 41 40 40
31 32 33 35 35 34 35 36 36 36 36 36 36 36 38 36 35 36 37 36 37 37 38 38 38 38 39 39 39 39 39 40 41 41 42 41 41 41 41 41 41 41 40 39
30 31 32 32 32 33 34 34 34 34 35 37 36 35 33 33 35 35 35 36 37 37 37 37 38 37 37 37 38 38 38 39 39 38 39 40 40 40 39 39 40 40 39 40
31 32 32 31 31 32 32 32 33 34 35 35 34 35 35 34 34 34 35 35 36 36 36 36 36 36 36 36 36 36 36 36 37 37 38 38 38 38 38 38 38 39 39 38
30 29 28 28 30 30 30 30 31 32 33 33 33 32 32 33 34 34 33 34 35 35 35 35 35 34 34 34 34 34 34 35 36 36 37 38 38 37 37 37 37 37 37 36
30 29 29 29 30 30 29 29 29 30 30 30 30 31 30 31 32 31 31 31 32 32 32 32 32 32 32 33 33 33 33 34 34 34 36 36 37 36 36 36 35 35 36 36
28 28 28 29 29 28 27 28 28 28 28 28 28 28 28 29 28 28 28 28 29 29 31 31 31 31 31 31 31 32 33 33 33 33 34 34 35 35 35 34 35 35 35 35
26 26 27 27 27 27 27 27 27 27 27 27 27 28 28 27 27 27 26 26 26 26 26 27 27 28 29 30 30 31 31 30 30 30 31 31 31 32 33 34 34 34 33 33
24 25 25 25 25 25 26 26 26 27 27 27 27 27 27 27 26 26 25 25 24 23 23 22 22 23 24 25 26 26 25 25 27 28 28 28 29 30 31 31 30 30 31 32
22 22 23 23 23 23 24 24 25 26 26 26 26 26 25 25 25 25 24 24 23 23 22 22 21 21 21 21 22 23 23 24 25 25 26 26 27 27 28 29 29 30 31 31
20 20 21 21 22 22 22 23 24 24 23 23 23 22 21 22 22 22 22 22 22 21 21 20 20 20 21 21 22 22 22 23 23 23 25 25 26 26 27 28 29 29 29 30
18 18 18 18 19 19 19 20 20 20 20 20 19 19 20 20 20 19 19 19 20 19 19 19 19 19 19 19 20 20 21 22 23 23 24 25 25 25 25 26 27 28 28 28
15 15 15 15 14 14 15 16 16 15 15 16 16 16 17 17 16 16 17 17 17 17 17 17 16 16 17 18 18 19 20 21 22 23 24 25 25 25 25 25 26 26 25 25
13 13 13 13 13 13 13 13 13 13 13 13 13 12 12 13 13 14 14 14 14 14 15 15 15 15 15 16 17 18 19 20 21 22 22 23 23 23 23 23 23 23 23 23
11 11 12 12 12 12 12 12 12 12 12 12 12 12 12 12 12 12 13 13 13 13 13 13 14 14 15 16 17 18 19 19 20 20 21 21 21 22 22 22 22 22 23 23
11 11 11 12 12 12 12 11 11 11 11 11 11 12 11 10 11 11 11 11 12 12 13 13 13 14 15 16 17 17 18 19 19 20 21 20 21 21 22 22 22 22 23 24
11 11 11 11 11 11 11 11 10 10 10 10 10 10 11 11 11 11 11 12 12 13 13 13 14 14 15 16 17 18 18 18 19 20 20 19 20 20 21 22 23 23 24 24
11 11 11 11 10 10 11 11 11 11 11 11 11 11 12 12 12 12 12 13 13 14 13 14 15 15 16 16 16 17 17 18 18 18 18 18 19 20 21 22 22 23 24 25
Wind_Direction
244 245 246 245 247 247 249 249 251 255 258 260 258 256 260 263 265 267 268 270 269 267 266 268 269 269 270 270 272 273 274 273 273 274 275 276 277 279 280 281 280 280 280 281
248 245 248 248 246 244 246 250 251 252 254 258 262 259 260 264 267 267 268 269 269 268 267 266 267 267 268 270 270 271 271 272 272 273 274 274 275 276 277 278 280 281 281 282
251 248 248 248 249 247 246 248 251 253 255 257 259 261 260 264 265 267 268 267 267 267 266 265 265 265 266 270 269 268 269 270 272 271 271 272 273 275 277 279 280 281 282 282
254 250 250 249 249 252 252 252 253 254 255 258 260 263 264 264 265 266 268 268 268 268 267 265 265 266 266 268 268 267 268 269 271 272 272 271 272 275 276 277 278 280 279 280
254 253 253 251 251 253 253 255 256 257 258 260 261 261 263 264 265 267 268 268 268 268 267 266 265 266 266 267 266 267 267 267 269 272 271 270 272 274 275 276 277 279 281 281
252 251 250 251 253 256 256 257 258 258 259 260 261 262 263 265 267 267 268 269 269 269 269 268 267 266 265 267 268 267 266 267 268 270 270 270 271 272 274 275 277 278 279 281
253 253 252 251 252 256 256 257 260 261 261 261 260 262 265 266 266 267 268 269 270 271 270 269 268 267 267 267 268 266 267 268 268 269 269 269 269 271 272 274 276 278 280 281
254 252 251 252 253 254 257 259 260 262 264 264 265 266 266 265 265 266 267 268 269 270 271 271 269 268 267 267 268 267 267 268 268 268 268 268 268 269 271 273 275 277 278 280
250 252 252 253 255 255 257 260 260 263 266 267 267 266 265 267 268 267 266 267 268 270 271 270 269 267 267 267 267 266 266 267 267 266 266 267 268 269 271 272 274 276 277 279
249 251 254 255 256 258 259 260 261 262 265 268 268 267 267 266 266 267 267 269 269 269 270 271 270 269 267 267 266 266 265 265 267 267 266 267 268 269 270 272 274 276 277 278
254 255 258 257 260 260 259 261 262 264 264 266 269 269 268 267 267 267 268 269 269 270 271 271 271 269 267 266 266 265 265 265 266 268 268 268 269 270 271 271 273 275 276 277
258 260 261 263 265 263 261 263 265 266 266 268 269 269 269 270 270 269 269 269 270 270 270 271 271 269 266 266 266 265 265 266 266 268 268 270 271 272 272 272 272 273 275 276
260 264 266 268 268 266 265 265 266 267 268 269 270 268 270 271 271 272 272 271 271 271 271 271 270 268 265 265 266 267 266 266 267 268 269 270 271 272 273 272 272 272 273 275
261 265 267 268 268 268 267 268 269 269 269 270 270 270 269 270 271 272 273 272 271 271 272 271 269 268 267 267 267 266 266 266 267 269 270 272 273 273 272 273 272 272 272 274
261 265 267 268 270 269 269 271 270 269 270 270 269 270 270 272 273 272 272 275 274 273 273 272 270 268 268 267 266 265 266 266 266 268 270 272 273 274 274 273 272 272 274 274
263 265 267 268 268 267 268 269 270 271 270 270 271 271 272 273 273 272 273 276 276 275 275 273 271 269 267 267 266 266 265 266 268 269 271 273 273 273 273 273 273 274 275 275
264 266 268 268 268 267 266 267 269 271 270 270 270 269 270 272 273 274 275 277 279 278 276 272 270 268 267 267 267 266 266 267 269 271 273 274 273 272 272 274 275 275 276 277
265 267 267 267 268 268 267 267 267 269 269 269 270 269 270 270 272 275 277 279 279 279 277 274 272 270 267 268 269 269 269 269 271 273 273 274 275 273 274 276 278 279 279 278
263 265 265 266 268 269 267 267 270 271 270 271 271 270 272 272 273 275 276 277 277 277 275 272 270 270 268 268 268 268 270 274 275 275 275 276 277 279 279 280 282 282 280 279
263 263 264 267 269 270 270 269 270 270 270 271 271 270 270 272 272 273 272 273 274 275 274 275 274 271 269 269 269 270 273 275 275 275 277 279 280 281 281 282 283 283 283 282
263 264 266 268 270 271 272 273 271 270 270 271 272 272 272 272 273 272 270 272 273 275 276 277 277 276 275 274 273 273 275 276 278 279 279 280 283 285 287 286 285 286 286 285
264 265 267 269 270 273 275 274 274 274 276 275 274 274 273 271 273 274 273 274 275 278 279 280 282 281 280 279 279 280 280 282 283 283 284 285 287 288 288 286 286 286 287 287
269 269 267 271 273 275 276 274 273 274 276 277 279 280 279 278 279 280 280 281 281 281 283 283 284 284 283 282 283 282 283 285 287 288 288 288 289 290 290 289 289 289 289 289
268 267 268 271 275 277 276 273 270 271 272 275 278 280 282 282 282 282 285 285 284 285 286 288 289 289 289 288 287 286 286 287 287 289 291 290 290 290 290 290 291 291 292 291
265 267 273 274 274 276 277 276 269 269 273 274 277 279 281 281 282 285 286 287 289 289 289 290 291 292 292 292 292 290 289 288 290 293 293 291 290 290 291 292 292 292 292 291
265 266 269 271 274 276 276 274 272 271 272 273 273 275 280 284 285 285 289 292 293 292 292 291 292 294 296 296 295 294 292 293 294 294 293 292 293 293 294 296 296 295 293 292
265 267 269 272 274 274 274 273 273 273 273 275 274 276 279 282 284 284 287 290 292 294 293 292 292 295 297 299 300 300 300 299 297 296 295 294 294 295 295 295 295 294 294 295
Height
5835 5837 5839 5841 5843 5844 5846 5847 5849 5850 5850 5849 5848 5848 5847 5846 5847 5847 5847 5848 5849 5850 5850 5851 5851 5852 5852 5852 5852 5852 5852 5852 5853 5852 5852 5852 5852 5851 5851 5851 5850 5850 5850 5850
5826 5829 5831 5832 5834 5836 5838 5838 5839 5841 5841 5841 5839 5840 5840 5840 5839 5840 5840 5841 5841 5842 5843 5843 5844 5844 5845 5845 5845 5845 5845 5845 5845 5845 5845 5845 5845 5844 5844 5844 5844 5843 5843 5843
5818 5821 5822 5824 5826 5827 5828 5829 5831 5832 5832 5831 5830 5831 5831 5832 5832 5832 5833 5832 5832 5834 5835 5835 5835 5836 5836 5836 5836 5836 5836 5837 5837 5837 5837 5837 5837 5837 5836 5836 5836 5836 5836 5835
5810 5813 5813 5818 5819 5819 5819 5821 5822 5822 5822 5823 5823 5823 5823 5823 5823 5824 5824 5823 5824 5825 5826 5826 5827 5827 5827 5827 5826 5827 5828 5828 5828 5829 5829 5829 5829 5829 5829 5828 5828 5828 5827 5827
5802 5804 5806 5809 5809 5810 5811 5812 5812 5813 5813 5814 5814 5814 5814 5813 5814 5814 5815 5814 5815 5815 5816 5817 5817 5818 5818 5817 5817 5817 5818 5819 5819 5820 5820 5820 5820 5821 5820 5820 5819 5819 5818 5818
5794 5796 5798 5801 5801 5801 5804 5802 5802 5803 5803 5804 5805 5805 5805 5804 5804 5805 5805 5804 5805 5806 5806 5807 5807 5807 5807 5807 5807 5808 5808 5809 5809 5810 5811 5811 5811 5811 5811 5811 5810 5810 5809 5809
5785 5787 5789 5791 5791 5793 5795 5793 5793 5793 5794 5794 5795 5795 5795 5795 5795 5795 5795 5795 5795 5796 5796 5797 5796 5796 5797 5797 5798 5798 5799 5799 5799 5800 5801 5801 5801 5801 5801 5801 5801 5800 5799 5799
5777 5779 5782 5780 5781 5783 5783 5783 5783 5783 5784 5785 5785 5785 5785 5784 5784 5785 5786 5786 5786 5786 5786 5786 5786 5786 5786 5787 5787 5787 5788 5789 5789 5789 5789 5790 5791 5791 5791 5791 5791 5790 5789 5789
5769 5771 5769 5771 5771 5772 5773 5774 5774 5775 5775 5775 5775 5775 5774 5774 5775 5775 5775 5775 5776 5776 5776 5776 5775 5775 5775 5775 5776 5776 5777 5778 5778 5778 5778 5779 5779 5780 5780 5780 5780 5780 5779 5779
5760 5760 5760 5761 5761 5762 5763 5764 5765 5765 5765 5765 5765 5765 5764 5763 5764 5765 5765 5765 5765 5765 5765 5765 5764 5763 5763 5763 5764 5765 5765 5766 5766 5766 5767 5767 5768 5768 5769 5769 5769 5769 5768 5768
5750 5751 5751 5751 5750 5752 5754 5754 5755 5755 5755 5756 5755 5754 5753 5753 5754 5754 5754 5754 5754 5753 5753 5753 5753 5752 5751 5751 5752 5753 5754 5754 5755 5755 5756 5755 5756 5756 5757 5757 5758 5758 5758 5757
5740 5741 5741 5741 5741 5742 5744 5744 5744 5745 5745 5744 5744 5744 5742 5743 5743 5743 5743 5743 5743 5742 5742 5742 5741 5741 5740 5740 5741 5741 5742 5743 5744 5744 5745 5745 5745 5745 5746 5746 5746 5746 5746 5746
5731 5732 5733 5733 5733 5734 5734 5735 5735 5735 5735 5735 5734 5734 5734 5734 5734 5733 5733 5733 5732 5731 5731 5730 5730 5729 5730 5729 5730 5730 5731 5732 5733 5734 5734 5734 5735 5735 5735 5735 5735 5735 5735 5735
5724 5725 5725 5725 5724 5725 5725 5726 5726 5726 5726 5726 5725 5724 5725 5725 5725 5725 5724 5723 5723 5722 5721 5720 5719 5719 5719 5719 5720 5720 5721 5722 5723 5724 5724 5724 5724 5724 5724 5724 5724 5724 5724 5724
5717 5718 5718 5717 5717 5717 5717 5717 5718 5718 5718 5717 5717 5716 5717 5717 5716 5716 5715 5714 5713 5712 5711 5710 5710 5709 5709 5710 5710 5711 5712 5713 5713 5714 5714 5714 5714 5713 5713 5714 5714 5714 5714 5714
5710 5710 5710 5710 5710 5710 5710 5710 5710 5710 5709 5709 5709 5709 5709 5708 5708 5707 5706 5705 5704 5703 5702 5701 5700 5700 5700 5701 5701 5702 5703 5703 5704 5704 5705 5704 5704 5704 5704 5704 5704 5704 5704 5703
5702 5703 5703 5703 5703 5703 5703 5702 5702 5702 5702 5702 5702 5701 5701 5701 5700 5700 5699 5698 5696 5695 5694 5693 5692 5692 5693 5693 5693 5694 5694 5695 5695 5695 5696 5695 5695 5695 5695 5695 5695 5694 5694 5693
5695 5695 5696 5696 5696 5695 5695 5695 5695 5695 5695 5695 5695 5695 5694 5694 5693 5692 5692 5691 5689 5688 5687 5686 5686 5686 5686 5686 5686 5686 5687 5687 5688 5688 5688 5688 5687 5687 5686 5686 5685 5685 5684 5684
5689 5689 5689 5689 5689 5688 5688 5688 5688 5688 5688 5688 5687 5687 5687 5687 5686 5686 5685 5684 5683 5682 5681 5681 5680 5680 5680 5680 5680 5680 5680 5681 5681 5680 5681 5680 5680 5679 5679 5678 5677 5676 5676 5675
5683 5683 5683 5683 5682 5682 5682 5682 5682 5682 5681 5681 5681 5680 5680 5680 5680 5680 5679 5678 5677 5676 5676 5675 5675 5675 5675 5675 5675 5675 5674 5674 5674 5673 5673 5673 5673 5672 5671 5670 5669 5668 5667 5667
5678 5678 5678 5677 5677 5677 5676 5676 5676 5676 5676 5676 5675 5675 5675 5675 5674 5674 5673 5673 5672 5671 5671 5670 5670 5669 5669 5669 5669 5668 5668 5668 5667 5667 5666 5666 5665 5664 5663 5662 5661 5660 5659 5658
5673 5673 5673 5673 5673 5672 5672 5672 5672 5671 5671 5671 5671 5670 5670 5670 5669 5669 5668 5668 5667 5667 5666 5666 5665 5664 5664 5664 5663 5663 5662 5662 5661 5661 5660 5659 5658 5657 5656 5655 5653 5652 5651 5650
5669 5669 5669 5669 5669 5668 5668 5668 5668 5667 5667 5667 5667 5666 5666 5666 5665 5665 5664 5664 5663 5663 5662 5661 5661 5660 5660 5659 5658 5658 5657 5657 5656 5655 5654 5653 5651 5650 5649 5647 5646 5645 5644 5643
5666 5666 5666 5665 5665 5665 5664 5664 5664 5664 5663 5663 5663 5663 5663 5662 5662 5661 5661 5660 5659 5659 5658 5657 5657 5656 5655 5654 5653 5653 5652 5651 5650 5649 5647 5646 5645 5643 5642 5641 5639 5638 5637 5635
5662 5662 5662 5662 5662 5661 5660 5660 5659 5659 5660 5660 5660 5659 5659 5659 5658 5658 5657 5657 5656 5655 5654 5653 5652 5651 5650 5649 5648 5647 5646 5645 5644 5642 5641 5640 5638 5637 5635 5633 5632 5631 5629 5628
5659 5659 5659 5658 5658 5658 5657 5657 5657 5657 5657 5656 5656 5656 5656 5655 5655 5655 5654 5653 5653 5651 5650 5650 5649 5647 5646 5645 5643 5642 5641 5639 5638 5636 5635 5633 5632 5630 5629 5627 5625 5624 5622 5620
5656 5656 5655 5655 5655 5654 5654 5654 5654 5654 5653 5653 5653 5653 5652 5652 5651 5651 5650 5650 5649 5648 5646 5645 5644 5643 5642 5640 5639 5637 5636 5634 5632 5631 5629 5627 5626 5624 5622 5620 5618 5616 5615 5613